| time (UTC) | temp C | wind direction | speed KPH | gust KPH | rain 1hr cm | rain 24hr cm | rain mn cm | humidity % | barometer mb |
| 20260507000029 | 19 | 0 | 0.0 | 6.4 | 0.00 | 0.00 | 0.00 | 71 | 1008.2 |
| 20260506234529 | 19 | 0 | 0.0 | 3.2 | 0.00 | 0.00 | 0.00 | 71 | 1007.9 |
| 20260506233030 | 19 | 0 | 0.0 | 3.2 | 0.00 | 0.00 | 0.00 | 70 | 1007.9 |
| 20260506231528 | 20 | 0 | 0.0 | 6.4 | 0.00 | 0.00 | 0.00 | 69 | 1007.9 |
| 20260506230031 | 20 | 0 | 0.0 | 4.8 | 0.00 | 0.00 | 0.00 | 68 | 1007.9 |
| 20260506224527 | 20 | 212 | 0.0 | 4.8 | 0.00 | 0.00 | 0.00 | 68 | 1007.5 |
| 20260506223029 | 20 | 0 | 0.0 | 1.6 | 0.00 | 0.00 | 0.00 | 68 | 1007.8 |
| 20260506221530 | 20 | 215 | 0.0 | 8.0 | 0.00 | 0.00 | 0.00 | 69 | 1007.8 |
| 20260506220030 | 20 | 312 | 0.0 | 8.0 | 0.00 | 0.00 | 0.00 | 69 | 1007.7 |
| 20260506214528 | 20 | 262 | 0.0 | 3.2 | 0.00 | 0.00 | 0.00 | 69 | 1007.6 |
| 20260506213029 | 20 | 190 | 0.0 | 8.0 | 0.00 | 0.00 | 0.00 | 69 | 1007.5 |
| 20260506211530 | 19 | 0 | 0.0 | 3.2 | 0.00 | 0.00 | 0.00 | 70 | 1007.5 |
| 20260506210033 | 19 | 0 | 0.0 | 6.4 | 0.00 | 0.00 | 0.00 | 70 | 1007.4 |
| 20260506204529 | 19 | 249 | 0.0 | 8.0 | 0.00 | 0.00 | 0.00 | 71 | 1007.1 |
| 20260506203039 | 19 | 141 | 0.0 | 12.9 | 0.00 | 0.00 | 0.00 | 70 | 1007.3 |
| 20260506201538 | 18 | 252 | 0.0 | 11.3 | 0.00 | 0.00 | 0.00 | 72 | 1007.2 |
| 20260506200035 | 18 | 0 | 0.0 | 4.8 | 0.00 | 0.00 | 0.00 | 74 | 1007.3 |
| 20260506194530 | 18 | 172 | 0.0 | 8.0 | 0.00 | 0.00 | 0.00 | 74 | 1007.6 |
| 20260506193031 | 17 | 0 | 1.6 | 12.9 | 0.00 | 0.00 | 0.00 | 74 | 1007.9 |
| 20260506191532 | 17 | 0 | 0.0 | 20.9 | 0.00 | 0.00 | 0.00 | 73 | 1008.0 |
| 20260506190037 | 17 | 91 | 1.6 | 17.7 | 0.00 | 0.00 | 0.00 | 73 | 1008.0 |
| 20260506184535 | 17 | 0 | 0.0 | 11.3 | 0.00 | 0.00 | 0.00 | 74 | 1008.1 |
| 20260506183033 | 17 | 0 | 0.0 | 9.7 | 0.00 | 0.00 | 0.00 | 75 | 1008.0 |
| 20260506181530 | 17 | 271 | 0.0 | 11.3 | 0.00 | 0.00 | 0.00 | 76 | 1008.1 |
| 20260506180032 | 17 | 0 | 0.0 | 8.0 | 0.00 | 0.00 | 0.00 | 75 | 1008.3 |
| 20260506174530 | 18 | 311 | 1.6 | 12.9 | 0.00 | 0.00 | 0.00 | 74 | 1008.6 |
| 20260506173033 | 18 | 170 | 0.0 | 1.6 | 0.00 | 0.00 | 0.00 | 77 | 1008.4 |
| 20260506171530 | 18 | 0 | 0.0 | 1.6 | 0.00 | 0.00 | 0.00 | 79 | 1008.1 |
| 20260506170029 | 18 | 0 | 0.0 | 3.2 | 0.00 | 0.00 | 0.00 | 80 | 1008.5 |
| 20260506164528 | 17 | 0 | 0.0 | 3.2 | 0.00 | 0.00 | 0.00 | 80 | 1008.8 |
| 20260506163035 | 17 | 0 | 0.0 | 1.6 | 0.00 | 0.00 | 0.00 | 79 | 1009.4 |
| 20260506161530 | 17 | 0 | 0.0 | 3.2 | 0.00 | 0.00 | 0.00 | 76 | 1009.9 |
| 20260506160031 | 17 | 0 | 0.0 | 3.2 | 0.00 | 0.00 | 0.00 | 73 | 1010.1 |
| 20260506154532 | 18 | 0 | 0.0 | 8.0 | 0.00 | 0.00 | 0.00 | 78 | 1010.1 |
| 20260506153027 | 20 | 0 | 0.0 | 12.9 | 0.00 | 0.00 | 0.00 | 61 | 1009.7 |
| 20260506151529 | 20 | 0 | 0.0 | 12.9 | 0.00 | 0.00 | 0.00 | 61 | 1009.8 |
| 20260506150029 | 20 | 168 | 0.0 | 9.7 | 0.00 | 0.00 | 0.00 | 58 | 1009.8 |
| 20260506144534 | 20 | 120 | 1.6 | 12.9 | 0.00 | 0.00 | 0.00 | 57 | 1010.1 |
| 20260506143029 | 20 | 0 | 0.0 | 9.7 | 0.00 | 0.00 | 0.00 | 57 | 1010.0 |
| 20260506141533 | 21 | 0 | 0.0 | 8.0 | 0.00 | 0.00 | 0.00 | 57 | 1009.9 |
| 20260506140029 | 20 | 229 | 1.6 | 11.3 | 0.00 | 0.00 | 0.00 | 59 | 1009.9 |
| 20260506134527 | 20 | 0 | 0.0 | 6.4 | 0.00 | 0.00 | 0.00 | 59 | 1009.9 |
| 20260506133028 | 20 | 317 | 0.0 | 11.3 | 0.00 | 0.00 | 0.00 | 60 | 1009.9 |
| 20260506131537 | 20 | 322 | 0.0 | 6.4 | 0.00 | 0.00 | 0.00 | 60 | 1010.2 |
| 20260506130028 | 20 | 177 | 0.0 | 8.0 | 0.00 | 0.00 | 0.00 | 61 | 1010.0 |
| 20260506124529 | 20 | 0 | 0.0 | 6.4 | 0.00 | 0.00 | 0.00 | 61 | 1009.8 |
| 20260506123028 | 18 | 0 | 0.0 | 8.0 | 0.00 | 0.00 | 0.00 | 73 | 1009.9 |
| 20260506121531 | 18 | 0 | 0.0 | 6.4 | 0.00 | 0.00 | 0.00 | 65 | 1010.1 |
| 20260506120033 | 18 | 138 | 0.0 | 4.8 | 0.00 | 0.00 | 0.00 | 65 | 1010.0 |
| 20260506114533 | 18 | 0 | 0.0 | 8.0 | 0.00 | 0.00 | 0.00 | 66 | 1010.1 |
| 20260506113030 | 18 | 174 | 0.0 | 14.5 | 0.00 | 0.00 | 0.00 | 66 | 1010.3 |
| 20260506111527 | 17 | 0 | 0.0 | 8.0 | 0.00 | 0.00 | 0.00 | 79 | 1010.1 |
| 20260506110033 | 17 | 0 | 0.0 | 6.4 | 0.00 | 0.00 | 0.00 | 71 | 1010.1 |
| 20260506104530 | 16 | 0 | 0.0 | 3.2 | 0.00 | 0.00 | 0.00 | 72 | 1010.0 |
| 20260506103036 | 16 | 0 | 0.0 | 3.2 | 0.00 | 0.00 | 0.00 | 74 | 1009.9 |
| 20260506101543 | 16 | 0 | 0.0 | 3.2 | 0.00 | 0.00 | 0.00 | 74 | 1010.1 |
| 20260506100037 | 16 | 0 | 0.0 | 3.2 | 0.00 | 0.00 | 0.00 | 74 | 1010.0 |
| 20260506094527 | 16 | 43 | 0.0 | 1.6 | 0.00 | 0.00 | 0.00 | 74 | 1009.9 |
| 20260506093038 | 16 | 0 | 0.0 | 3.2 | 0.00 | 0.00 | 0.00 | 73 | 1009.9 |
| 20260506091529 | 16 | 0 | 0.0 | 3.2 | 0.00 | 0.00 | 0.00 | 73 | 1009.9 |
| 20260506090028 | 16 | 0 | 0.0 | 11.3 | 0.00 | 0.00 | 0.00 | 73 | 1010.0 |
| 20260506084528 | 16 | 0 | 0.0 | 6.4 | 0.00 | 0.00 | 0.00 | 73 | 1010.1 |
| 20260506083033 | 17 | 0 | 0.0 | 4.8 | 0.00 | 0.00 | 0.00 | 72 | 1010.0 |
| 20260506081536 | 17 | 177 | 0.0 | 3.2 | 0.00 | 0.00 | 0.00 | 72 | 1010.1 |
| 20260506073039 | 17 | 0 | 0.0 | 4.8 | 0.00 | 0.00 | 0.00 | 70 | 1010.3 |
| 20260506071527 | 17 | 0 | 0.0 | 3.2 | 0.00 | 0.00 | 0.00 | 70 | 1010.4 |
| 20260506061528 | 18 | 0 | 0.0 | 3.2 | 0.00 | 0.00 | 0.00 | 66 | 1010.7 |
| 20260506044601 | 18 | 0 | 0.0 | 0.0 | 0.00 | 0.00 | 0.00 | 62 | 1011.3 |
| 20260506043032 | 18 | 0 | 0.0 | 3.2 | 0.00 | 0.00 | 0.00 | 60 | 1011.2 |
| 20260506041533 | 19 | 0 | 0.0 | 1.6 | 0.00 | 0.00 | 0.00 | 60 | 1011.2 |
| 20260506040032 | 19 | 0 | 0.0 | 1.6 | 0.00 | 0.00 | 0.00 | 59 | 1011.1 |
| 20260506034559 | 19 | 0 | 0.0 | 1.6 | 0.00 | 0.00 | 0.00 | 58 | 1011.2 |
| 20260506033032 | 20 | 0 | 0.0 | 0.0 | 0.00 | 0.00 | 0.00 | 56 | 1011.1 |
| 20260506031533 | 20 | 0 | 0.0 | 3.2 | 0.00 | 0.00 | 0.00 | 55 | 1011.2 |
| 20260506030030 | 20 | 0 | 0.0 | 1.6 | 0.00 | 0.00 | 0.00 | 54 | 1011.2 |
| 20260506024532 | 20 | 282 | 0.0 | 8.0 | 0.00 | 0.00 | 0.00 | 53 | 1011.1 |
| 20260506023033 | 20 | 0 | 0.0 | 4.8 | 0.00 | 0.00 | 0.00 | 53 | 1011.2 |
| 20260506021533 | 20 | 0 | 0.0 | 3.2 | 0.00 | 0.00 | 0.00 | 52 | 1011.2 |
| 20260506020028 | 20 | 0 | 0.0 | 1.6 | 0.00 | 0.00 | 0.00 | 51 | 1011.1 |
| 20260506014530 | 21 | 0 | 0.0 | 3.2 | 0.00 | 0.00 | 0.00 | 51 | 1011.1 |
| 20260506013029 | 21 | 0 | 0.0 | 3.2 | 0.00 | 0.00 | 0.00 | 50 | 1011.0 |
| 20260506011527 | 21 | 0 | 0.0 | 9.7 | 0.00 | 0.00 | 0.00 | 48 | 1010.6 |
| 20260506010030 | 22 | 195 | 0.0 | 4.8 | 0.00 | 0.00 | 0.00 | 46 | 1010.6 |
| 20260506004536 | 22 | 0 | 0.0 | 9.7 | 0.00 | 0.00 | 0.00 | 53 | 1010.3 |
| 20260506003038 | 23 | 0 | 0.0 | 3.2 | 0.00 | 0.00 | 0.00 | 38 | 1010.1 |
| 20260506001527 | 23 | 252 | 0.0 | 1.6 | 0.00 | 0.00 | 0.00 | 36 | 1010.0 |